Voltar ao catálogo

THORAD DELTA 1 DEB

AtivoSSO
NORAD 8786·DEBRIS·🇺🇸 United States

Lançado Nov 15, 1974 de Vandenberg Space Force Base

Loading…

Próximas Passagens (próximas 24 horas)

TLE

AtualizadoSource: Space-Track

Época: Sep 13, 2026, 01:11 UTC

1 08786U 74089DN  26256.04982047  .00000021  00000-0  46240-3 0  9994
2 08786 101.9421 355.2761 0054170 193.7426 341.7355 12.44443473351145

Acompanhe THORAD DELTA 1 DEB em tempo real com AllMySat

Download on the App Store